Total_Precipitation_Accumulation
0.00 0.01 0.01 0.01 0.02 0.06 0.21 0.44 0.42 0.06 0.02 0.18 0.14 0.02 0.00 0.00 0.00 0.00 0.00 0.00 0.00 0.00 0.00 0.00 0.00 0.00 0.00 0.00 0.00 0.00 0.00 0.00 0.00 0.00 0.00 0.00 0.00 0.00 0.00 0.00 0.00 0.00 0.00 0.00
0.01 0.01 0.01 0.02 0.04 0.11 0.26 0.51 0.24 0.14 0.04 0.09 0.03 0.01 0.00 0.00 0.00 0.00 0.00 0.00 0.00 0.00 0.00 0.00 0.00 0.00 0.00 0.00 0.00 0.00 0.00 0.00 0.00 0.00 0.00 0.00 0.00 0.00 0.00 0.00 0.00 0.00 0.00 0.00
0.01 0.01 0.01 0.03 0.08 0.16 0.44 0.64 0.30 0.30 0.33 0.06 0.00 0.02 0.01 0.00 0.00 0.00 0.00 0.00 0.00 0.00 0.00 0.00 0.00 0.00 0.00 0.00 0.00 0.00 0.00 0.00 0.00 0.01 0.00 0.00 0.00 0.00 0.00 0.00 0.00 0.00 0.00 0.00
0.01 0.01 0.02 0.04 0.07 0.23 0.67 0.77 0.22 0.07 0.17 0.13 0.02 0.00 0.00 0.00 0.00 0.00 0.00 0.00 0.00 0.00 0.00 0.00 0.00 0.00 0.00 0.00 0.01 0.00 0.00 0.00 0.01 0.00 0.00 0.00 0.00 0.00 0.00 0.00 0.00 0.00 0.00 0.00
0.02 0.02 0.03 0.04 0.09 0.31 0.90 0.53 0.07 0.02 0.05 0.02 0.04 0.02 0.01 0.00 0.00 0.00 0.00 0.00 0.00 0.00 0.00 0.00 0.00 0.00 0.00 0.00 0.00 0.01 0.00 0.00 0.00 0.00 0.00 0.00 0.00 0.00 0.00 0.00 0.00 0.00 0.00 0.00
0.02 0.03 0.03 0.05 0.12 0.45 0.82 0.31 0.03 0.03 0.04 0.03 0.03 0.02 0.01 0.00 0.00 0.00 0.00 0.00 0.00 0.00 0.00 0.00 0.00 0.00 0.00 0.00 0.00 0.00 0.01 0.00 0.00 0.00 0.00 0.00 0.00 0.00 0.00 0.00 0.00 0.00 0.00 0.00
0.03 0.03 0.04 0.07 0.16 0.41 0.45 0.16 0.04 0.08 0.09 0.03 0.03 0.01 0.00 0.00 0.00 0.00 0.00 0.00 0.00 0.00 0.00 0.00 0.00 0.00 0.00 0.00 0.00 0.00 0.00 0.00 0.01 0.01 0.00 0.02 0.01 0.00 0.00 0.00 0.00 0.00 0.00 0.00
0.04 0.04 0.04 0.06 0.13 0.28 0.40 0.26 0.10 0.07 0.09 0.04 0.04 0.03 0.03 0.01 0.00 0.00 0.00 0.00 0.00 0.00 0.00 0.00 0.00 0.00 0.00 0.00 0.00 0.00 0.00 0.00 0.00 0.01 0.01 0.02 0.00 0.00 0.00 0.00 0.00 0.00 0.00 0.00
0.03 0.04 0.04 0.06 0.09 0.18 0.37 0.37 0.20 0.20 0.16 0.06 0.02 0.06 0.03 0.03 0.01 0.00 0.00 0.00 0.00 0.00 0.00 0.02 0.03 0.00 0.00 0.00 0.01 0.01 0.01 0.00 0.00 0.00 0.00 0.02 0.01 0.00 0.00 0.00 0.01 0.00 0.00 0.00
0.04 0.05 0.05 0.06 0.09 0.13 0.27 0.40 0.27 0.28 0.26 0.06 0.01 0.02 0.04 0.03 0.01 0.01 0.00 0.00 0.00 0.00 0.01 0.05 0.02 0.00 0.00 0.00 0.00 0.01 0.01 0.01 0.01 0.01 0.01 0.00 0.00 0.01 0.00 0.02 0.02 0.00 0.00 0.00
0.03 0.05 0.07 0.07 0.06 0.08 0.19 0.21 0.21 0.23 0.24 0.08 0.04 0.01 0.01 0.01 0.01 0.01 0.01 0.03 0.03 0.03 0.05 0.05 0.02 0.00 0.00 0.00 0.00 0.00 0.00 0.00 0.00 0.01 0.01 0.00 0.00 0.05 0.08 0.03 0.00 0.00 0.00 0.00
0.02 0.03 0.04 0.05 0.06 0.07 0.13 0.16 0.09 0.17 0.28 0.11 0.01 0.01 0.01 0.01 0.00 0.00 0.00 0.00 0.00 0.00 0.00 0.00 0.00 0.00 0.00 0.00 0.00 0.00 0.00 0.00 0.00 0.00 0.00 0.00 0.00 0.02 0.02 0.01 0.01 0.00 0.00 0.00
0.03 0.03 0.03 0.05 0.06 0.08 0.15 0.16 0.07 0.11 0.33 0.16 0.04 0.00 0.00 0.00 0.01 0.00 0.00 0.00 0.00 0.00 0.00 0.00 0.00 0.00 0.00 0.00 0.00 0.00 0.00 0.00 0.00 0.00 0.00 0.00 0.00 0.00 0.00 0.00 0.01 0.00 0.00 0.00
0.04 0.07 0.06 0.04 0.06 0.08 0.19 0.23 0.10 0.03 0.08 0.08 0.03 0.00 0.00 0.00 0.00 0.01 0.00 0.00 0.01 0.01 0.02 0.01 0.01 0.01 0.00 0.00 0.00 0.00 0.00 0.00 0.01 0.00 0.00 0.00 0.00 0.00 0.00 0.00 0.00 0.01 0.01 0.00
0.02 0.04 0.08 0.07 0.08 0.10 0.25 0.30 0.10 0.00 0.01 0.01 0.00 0.00 0.00 0.00 0.00 0.01 0.05 0.03 0.02 0.03 0.05 0.04 0.00 0.00 0.02 0.01 0.01 0.00 0.01 0.02 0.04 0.01 0.02 0.00 0.00 0.01 0.00 0.00 0.00 0.00 0.01 0.01
0.03 0.04 0.08 0.08 0.15 0.28 0.52 0.72 0.31 0.01 0.01 0.06 0.05 0.07 0.01 0.00 0.00 0.01 0.03 0.05 0.07 0.06 0.06 0.08 0.01 0.01 0.05 0.04 0.05 0.02 0.01 0.02 0.01 0.00 0.01 0.02 0.01 0.03 0.02 0.01 0.02 0.02 0.02 0.00
0.07 0.07 0.10 0.09 0.22 0.27 0.29 0.17 0.10 0.02 0.04 0.24 0.21 0.06 0.02 0.02 0.03 0.02 0.03 0.07 0.13 0.22 0.13 0.19 0.13 0.03 0.06 0.03 0.07 0.06 0.05 0.06 0.03 0.01 0.02 0.05 0.03 0.02 0.02 0.02 0.02 0.01 0.01 0.00
0.12 0.18 0.15 0.17 0.22 0.22 0.11 0.02 0.00 0.05 0.28 0.35 0.38 0.15 0.06 0.09 0.08 0.05 0.09 0.13 0.26 0.27 0.24 0.12 0.21 0.25 0.12 0.12 0.08 0.03 0.00 0.01 0.04 0.02 0.01 0.01 0.02 0.02 0.01 0.01 0.01 0.01 0.00 0.00
0.27 0.26 0.29 0.41 0.36 0.26 0.10 0.05 0.07 0.16 0.25 0.20 0.19 0.21 0.12 0.14 0.11 0.06 0.07 0.17 0.23 0.29 0.17 0.09 0.11 0.39 0.42 0.22 0.09 0.07 0.04 0.01 0.00 0.00 0.00 0.00 0.00 0.00 0.00 0.00 0.00 0.00 0.00 0.00
0.15 0.19 0.34 0.52 0.43 0.24 0.23 0.35 0.35 0.32 0.20 0.13 0.10 0.06 0.04 0.17 0.13 0.06 0.04 0.05 0.15 0.20 0.15 0.17 0.25 0.18 0.11 0.08 0.08 0.07 0.06 0.06 0.03 0.01 0.01 0.00 0.00 0.00 0.00 0.00 0.00 0.00 0.00 0.00
0.07 0.12 0.34 0.39 0.20 0.14 0.21 0.24 0.22 0.16 0.11 0.07 0.11 0.04 0.02 0.08 0.06 0.00 0.00 0.01 0.03 0.08 0.10 0.08 0.14 0.14 0.09 0.02 0.01 0.03 0.08 0.07 0.07 0.10 0.09 0.06 0.07 0.05 0.02 0.03 0.03 0.04 0.05 0.07
0.02 0.07 0.16 0.13 0.10 0.12 0.09 0.06 0.06 0.03 0.03 0.02 0.02 0.01 0.01 0.00 0.01 0.01 0.01 0.01 0.01 0.03 0.09 0.04 0.02 0.04 0.05 0.06 0.06 0.06 0.08 0.10 0.12 0.10 0.10 0.11 0.11 0.11 0.09 0.07 0.06 0.05 0.06 0.08
0.00 0.00 0.01 0.01 0.00 0.00 0.01 0.00 0.01 0.02 0.03 0.02 0.01 0.00 0.00 0.00 0.09 0.04 0.01 0.02 0.03 0.02 0.05 0.04 0.03 0.02 0.01 0.02 0.02 0.04 0.06 0.05 0.05 0.07 0.08 0.07 0.06 0.05 0.05 0.05 0.07 0.06 0.07 0.11
0.00 0.00 0.00 0.00 0.00 0.02 0.03 0.03 0.03 0.04 0.04 0.05 0.06 0.04 0.03 0.06 0.27 0.11 0.05 0.08 0.02 0.01 0.02 0.02 0.03 0.03 0.03 0.02 0.03 0.02 0.04 0.05 0.05 0.07 0.07 0.08 0.08 0.09 0.10 0.12 0.15 0.10 0.12 0.17
0.00 0.00 0.01 0.01 0.05 0.04 0.04 0.04 0.04 0.04 0.05 0.12 0.13 0.09 0.06 0.08 0.31 0.05 0.02 0.03 0.02 0.01 0.01 0.03 0.05 0.04 0.04 0.04 0.05 0.06 0.08 0.09 0.10 0.12 0.10 0.11 0.12 0.09 0.11 0.14 0.13 0.10 0.11 0.11
0.00 0.01 0.02 0.01 0.01 0.01 0.01 0.03 0.05 0.05 0.09 0.14 0.13 0.08 0.03 0.04 0.09 0.01 0.01 0.00 0.01 0.02 0.03 0.05 0.04 0.05 0.08 0.10 0.11 0.13 0.15 0.14 0.15 0.15 0.14 0.14 0.13 0.10 0.11 0.10 0.08 0.07 0.05 0.05
0.00 0.01 0.02 0.02 0.02 0.02 0.05 0.06 0.07 0.08 0.11 0.13 0.09 0.05 0.03 0.02 0.00 0.01 0.01 0.03 0.07 0.07 0.08 0.08 0.07 0.08 0.12 0.14 0.14 0.15 0.12 0.09 0.08 0.07 0.06 0.04 0.03 0.01 0.01 0.01 0.02 0.01 0.01 0.01